Location: Gairloch Mountain Observatory
(46.1383°N, 60.9640°W)
Time: 13:59:46
(UTC-03:00)

Daily predictions for brighter satellites

Satellite Brightness Start Highest point End
(mag) Time Altitude Azimuth Time Altitude Azimuth Time Altitude Azimuth
Meteor 2-10 Rocket 3.8 21:09:22 10° N 21:15:14 78° ENE 21:20:59 10° SSE
Cosmos 1606 4.1 21:11:58 10° NNE 21:15:17 25° ENE 21:18:34 10° SE
Cosmos 1624 Rocket 4.3 21:13:37 10° S 21:18:38 46° ESE 21:23:42 10° NNE
H-2A R/B 3.9 21:17:01 10° E 21:20:25 17° ENE 21:23:47 10° NNE
Envisat 3.1 21:15:45 10° SSE 21:20:48 71° ENE 21:25:54 10° N
Cosmos 1892 2.7 21:21:41 10° S 21:25:29 73° E 21:29:20 10° NNE
Cosmos 1733 Rocket 3.1 21:23:26 10° S 21:27:48 62° E 21:32:09 10° NNE
USA 186 4.5 21:28:03 10° SW 21:30:16 19° W 21:32:37 10° NW
NOSS 2-2 (E) 3.8 21:26:24 10° SSW 21:30:26 48° ESE 21:35:11 10° NE
Cosmos 909 Rocket 4.3 21:26:18 10° SSW 21:32:46 65° ESE 21:40:36 10° NE
SPOT 1/Viking Rocket 4.2 21:30:07 10° SE 21:34:58 42° ENE 21:39:51 10° N
Cosmos 407 Rocket 3.7 21:31:14 10° NNW 21:36:26 61° ENE 21:41:38 10° SE
Nimbus 7 Rocket 4.4 21:32:14 10° NNE 21:38:08 65° ESE 21:44:02 10° S
CZ-4 SHROUD 3.5 21:35:39 10° SSE 21:38:38 49° ENE 21:41:40 10° N
Cosmos 2074 Rocket 4.1 21:32:54 10° S 21:39:11 89° WNW 21:45:30 10° N
ERBS 2.6 21:36:39 10° WNW 21:40:05 60° SW 21:43:09 12° SE
Cosmos 1238 Rocket 3.5 21:37:44 10° NNE 21:40:23 26° ENE 21:42:45 13° SE
Cosmos 1452 Rocket 4.4 21:38:00 10° SSE 21:42:31 30° E 21:47:05 10° NE
COSMOS 2406 3.4 21:37:00 10° NNW 21:42:46 75° WSW 21:48:27 10° SSE
SPOT 5 3.1 21:40:57 10° SSE 21:46:12 87° ENE 21:51:35 10° NNW
Cosmos 1190 Rocket 4.0 21:41:47 10° NNW 21:47:01 89° ENE 21:52:12 10° SSE
Cosmos 1610 Rocket 4.5 21:41:24 10° S 21:47:31 74° E 21:53:44 10° NNE
Meteor 1-10 Rocket 4.5 21:41:38 10° NNW 21:47:32 78° W 21:53:17 10° S
ERS-1 Rocket 4.1 21:45:12 10° S 21:49:59 43° W 21:54:48 10° NNW
Nadezhda 3 Rocket 4.1 21:44:19 10° N 21:50:39 66° E 21:56:58 10° SSE
H-2A R/B 2.7 21:48:23 10° S 21:52:39 54° W 21:56:51 10° NNW
MetOp-B 4.1 21:47:33 10° SSE 21:52:54 83° ENE 21:58:18 10° NNW
Cosmos 1140 Rocket 4.4 21:48:57 10° N 21:53:40 35° ENE 21:57:34 14° ESE
Cosmos 1356 Rocket 4.2 21:51:04 10° SSW 21:55:12 55° WNW 21:59:26 10° N
ATLAS 5 CENTAUR R/B 2.9 21:53:39 10° NW 21:59:30 56° WSW 22:05:21 12° SSE
PSLV R/B 3.2 21:57:05 12° S 21:59:44 73° WSW 22:02:42 10° NNW
Cosmos 1862 3.5 21:57:41 10° S 22:01:37 52° E 22:05:36 10° NNE
ARGOS 3.3 21:57:03 13° SSE 22:01:44 62° ENE 22:07:01 10° N
USA 234 3.8 21:56:14 10° ENE 22:02:03 33° SE 22:07:49 10° SSW
Terra 3.1 21:59:05 14° ESE 22:02:18 27° ENE 22:06:19 10° N
OPS 6432 4.1 21:59:14 10° SSW 22:02:35 70° SE 22:05:41 10° NE
Cosmos 2278 Rocket 2.8 22:02:08 10° S 22:07:13 35° ESE 22:12:20 10° NE
Okean 2 Rocket 3.7 22:05:24 16° SSE 22:08:27 37° E 22:12:32 10° NNE
Gbstr 26 Del rocket 4.5 22:03:18 10° WNW 22:08:33 43° N 22:12:52 10° ENE
Cosmos 2341 Rocket 4.1 22:02:27 10° S 22:08:40 62° E 22:14:51 10° NNE
Cosmos 1844 3.9 22:03:52 10° S 22:09:28 55° ESE 22:15:07 10° NE
CZ-4B R/B 3.5 22:05:11 10° NNE 22:10:08 57° E 22:14:55 10° S
Cosmos 1833 Rocket 4.2 22:06:44 10° N 22:11:21 25° NE 22:15:38 11° E
Sich 1 Rocket 3.8 22:07:11 10° SSW 22:11:45 79° W 22:16:22 10° N
UNK 4.5 22:09:15 10° NNE 22:15:34 81° ESE 22:21:39 10° SSW
Timation 2 Rocket 4.3 22:10:12 10° NNW 22:16:06 51° NE 22:20:21 18° SE
Cosmos 676 Rocket 4.0 22:11:30 10° NNW 22:16:43 84° WSW 22:20:43 17° SSE
Meteor 1-27 Rocket 3.9 22:13:30 10° NNW 22:19:06 72° W 22:24:15 12° S
CZ-4C R/B 3.8 22:18:37 23° SE 22:20:41 46° ENE 22:24:34 10° N
Cosmos 1844 Rocket 2.7 22:15:13 10° SSW 22:20:53 87° ESE 22:26:34 10° NNE
Cosmos 2056 Rocket 4.1 22:15:57 10° SW 22:21:02 59° WNW 22:26:08 10° NNE
Cosmos 1825 2.1 22:19:37 14° S 22:22:49 80° E 22:26:40 10° N
Cosmos 2082 Rocket 3.2 22:18:43 10° NNW 22:23:58 36° NE 22:27:47 17° ESE
Cosmos 1954 Rocket 4.0 22:19:16 10° NNW 22:24:29 89° ENE 22:28:06 21° SSE
Cosmos 1174 3.3 22:21:52 10° NW 22:25:15 69° WSW 22:26:35 30° SSE
Cosmos 1741 Rocket 4.4 22:26:20 10° NNW 22:31:29 53° ENE 22:34:30 24° SE
Cosmos 1184 Rocket 2.7 22:30:38 24° S 22:32:29 76° E 22:35:50 10° NNE
DNEPR-1 R/B 4.2 22:27:45 10° NNW 22:33:27 62° NE 22:36:19 24° ESE
Cosmos 1782 Rocket 3.5 22:30:15 15° S 22:33:54 84° E 22:38:24 10° N
CENTAUR R/B 4.3 22:29:16 10° NW 22:36:06 33° WSW 22:43:13 10° S
SL-8 Rocket 4.1 22:32:33 18° SSE 22:37:19 62° E 22:43:28 10° NNE
Cosmos 2297 4.5 22:35:04 23° SE 22:37:26 32° ESE 22:42:27 10° NE
COSMOS 2487 2.5 22:34:28 10° NNW 22:38:06 81° WSW 22:39:40 32° SSE
CZ-4 R/B 3.7 22:33:57 10° NNE 22:38:41 79° ESE 22:42:22 16° S
Meteor 2-13 Rocket 4.4 22:35:36 14° S 22:41:03 79° E 22:47:14 10° NNE
Cosmos 2154 Rocket 4.4 22:35:28 10° SSW 22:41:37 62° WNW 22:47:47 10° N
YAOGAN 6 4.3 22:40:07 11° SSW 22:42:54 27° W 22:45:57 10° NW
APEX 4.2 22:42:15 29° ESE 22:42:54 31° ESE 22:47:08 10° NE
USA 229 DEB 4.3 22:36:12 10° NW 22:43:08 53° NE 22:48:23 18° ESE
USA 229 4.3 22:36:18 10° NW 22:43:14 52° NE 22:48:30 18° ESE
IGS 5A 3.7 22:41:30 30° SE 22:43:19 55° ENE 22:47:24 10° N
Cosmos 1408 3.2 22:40:58 13° SSW 22:44:05 55° W 22:47:42 10° N
SL-8 R/B 3.6 22:40:40 10° WSW 22:45:29 81° SSE 22:50:19 10° ENE
Cosmos 1975 Rocket 3.4 22:43:18 10° NNW 22:47:35 60° W 22:50:14 22° S
SL-08 RB Rocket 4.2 22:46:48 20° S 22:49:48 57° W 22:54:23 10° NNW
CARTOSAT-1 3.5 22:50:36 32° SSE 22:52:33 80° ENE 22:56:53 10° N
H-2A R/B 2.2 22:56:03 26° S 22:59:11 82° WSW 23:04:34 10° NNW
Cosmos 1536 Rocket 3.7 22:55:52 10° N 23:00:19 61° E 23:01:53 37° SE
Cosmos 1242 Rocket 3.2 22:58:18 10° NNW 23:01:50 50° W 23:03:15 31° SSW
Okean 1 4.3 22:58:23 10° N 23:02:07 33° ENE 23:02:59 30° E
Meteor 2-8 Rocket 4.5 22:58:33 10° N 23:04:43 72° E 23:07:51 30° SSE
Spot 2 4.4 23:01:55 10° NNE 23:06:16 47° E 23:07:13 40° SE
Cosmos 1420 Rocket 3.9 23:06:05 19° SSW 23:09:56 88° ESE 23:15:12 10° NNE
Cosmos 864 Rocket 4.4 23:06:29 27° S 23:10:00 74° E 23:16:09 10° NNE
Cosmos 2151 Rocket 3.5 23:11:38 37° S 23:13:24 81° E 23:17:58 10° N
Meteor 1-20 Rocket 4.5 23:12:12 34° SSE 23:14:16 51° E 23:19:38 10° NNE
Intercosmos 25 4.2 23:12:07 18° SW 23:14:27 40° W 23:17:30 10° N
Cosmos 2366 rocket 4.0 23:11:29 25° S 23:15:22 85° E 23:21:44 10° N
Meteor 1-25 Rocket 4.3 23:13:48 33° SSE 23:16:25 63° E 23:22:12 10° NNE
Meteor 1-18 Rocket 4.3 23:13:00 10° N 23:18:55 88° E 23:21:39 34° S
Meteor 1-14 Rocket 4.3 23:17:34 22° SSW 23:21:23 75° W 23:27:02 10° N
SAR-Lupe-2 3.8 23:28:10 53° SW 23:28:39 59° WSW 23:32:12 10° NNW
ALOS 2 4.1 23:30:07 22° E 23:31:15 24° ENE 23:34:48 10° NNE
ASTEX 1 3.3 23:26:22 10° N 23:31:19 78° E 23:32:54 44° S
Cosmos 614 Rocket 4.4 23:29:51 10° NNW 23:34:47 50° WSW 23:36:33 35° SSW
BREEZE-M TANK 2.8 23:25:34 10° W 23:34:52 78° SSW 23:35:56 46° ESE
Cosmos 2084 3.7 23:32:18 16° SW 23:35:13 58° NW 23:39:02 10° NNE
Spot 4 4.3 23:34:20 35° SSW 23:36:07 55° W 23:40:55 10° NNW
Cosmos 2218 Rocket 4.5 23:32:39 19° SSW 23:37:19 60° WNW 23:43:41 10° N
Okean 1-7 Rocket 3.7 23:35:01 10° N 23:39:31 64° E 23:40:18 53° SE
Terra 2.8 23:37:59 27° SW 23:39:54 38° W 23:44:21 10° NNW
DMSP B5D2-2 4.5 23:34:48 10° N 23:39:57 60° WNW 23:43:08 23° SW
USA 234 3.3 23:38:54 10° NE 23:45:28 81° NW 23:51:59 10° WSW
Okean 1 Rocket 3.0 23:47:20 60° SE 23:47:57 69° E 23:52:25 10° NNE
CZ-4C R/B 4.1 23:50:55 35° ENE 23:51:02 35° ENE 23:54:30 10° N
Cosmos 2278 Rocket 3.4 23:45:54 10° SW 23:51:14 41° NW 23:56:36 10° NNE
Meteor 1-11 Rocket 4.1 23:50:37 41° SE 23:52:06 51° E 23:57:43 10° NNE
Cosmos 1000 Rocket 4.5 23:46:27 10° N 23:52:42 76° E 23:54:55 43° SSE
Cosmos 1300 Rocket 3.5 23:52:19 62° S 23:53:02 89° ESE 23:57:31 10° N
Cosmos 1025 Rocket 3.5 23:50:28 10° N 23:54:43 46° ENE 23:55:10 44° E
